Home > Weather > Goch > Past weeks

Flag for Germany Past Weather in Goch, North Rhine-Westphalia, Germany — Yesterday and Last 2 Weeks

Now
70 °F

Sunny.


Feels Like: 70 °F
Forecast: 63 / 78 °F
Wind: No wind

Location: Niederrhein

Current Time: Jul 23, 2016 at 11:20:40 PM

Latest Report: Jul 23, 2016 at 10:50 PM


Visibility: 10 mi

Pressure: 30.09 "Hg

Humidity: 83%

Dew Point: 64 °F

Location of GochLocation

Past Weather in Goch — Graph

°F

Goch Temperature Yesterday

Maximum temperature yesterday: 79 °F (at 4:50 PM)
Minimum temperature yesterday: 61 °F (at 8:50 AM)
Average temperature yesterday: 71 °F

High & Low Weather Summary for the Past Weeks

 TemperatureHumidityPressure
High95 °F (Jul 20, 4:50 PM)100% (Jul 13, 5:20 AM)30.30 "Hg (Jul 13, 5:20 AM)
Low48 °F (Jul 14, 4:50 AM)28% (Jul 20, 4:50 PM)29.74 "Hg (Jul 10, 7:20 PM)
Average70 °F68%30.04 "Hg
* Reported Jul 8 9:20 PM — Jul 23 9:50 PM, Goch, Weather by CustomWeather, © 2016

Note: Actual official high and low records may vary slightly from our data, if they occured in-between our weather recording intervals... More about our weather records

Advertising

Goch Weather History for the Previous 24 Hours

Scroll right to see more
 ConditionsComfort  
Time TempWeatherWind HumidityBarometerVisibility
9:50 PM
Sat, Jul 23
73 °FSunny.2 mph78%30.09 "Hg10 mi
9:20 PM73 °FSunny.2 mph74%30.07 "Hg10 mi
8:50 PM77 °FScattered clouds.3 mph69%30.07 "HgN/A
8:20 PM77 °FSunny.2 mph65%30.07 "Hg10 mi
7:50 PM79 °FSunny.3 mph61%30.07 "Hg10 mi
7:20 PM79 °FSunny.2 mph65%30.07 "Hg10 mi
6:50 PM79 °FSunny.3 mph61%30.07 "Hg10 mi
6:20 PM79 °FSunny.2 mph65%30.07 "Hg10 mi
5:50 PM79 °FPassing clouds.3 mph65%30.07 "HgN/A
5:20 PM79 °FSunny.5 mph61%30.07 "Hg10 mi
4:50 PM79 °FPartly sunny.1 mph61%30.07 "HgN/A
4:20 PM77 °FScattered clouds.2 mph65%30.07 "HgN/A
3:50 PM79 °FSunny.3 mph61%30.09 "Hg10 mi
3:20 PM75 °FScattered clouds.5 mph69%30.09 "HgN/A
2:50 PM75 °FPartly sunny.5 mph69%30.09 "HgN/A
2:20 PM75 °FPartly sunny.5 mph69%30.09 "HgN/A
1:50 PM73 °FPartly sunny.3 mph74%30.09 "HgN/A
1:20 PM72 °FPartly sunny.2 mph78%30.09 "HgN/A
12:50 PM70 °FPartly sunny.5 mph83%30.09 "HgN/A
12:20 PM70 °FPartly sunny.2 mph78%30.09 "HgN/A
11:50 AM68 °FPartly sunny.3 mph88%30.09 "Hg6 mi
11:20 AM68 °FPartly sunny.6 mph88%30.07 "Hg5 mi
10:50 AM68 °FPartly sunny.5 mph88%30.07 "Hg4 mi
10:20 AM68 °FPartly sunny.6 mph88%30.07 "Hg4 mi
9:50 AM66 °FFog.6 mph94%30.07 "Hg3 mi
9:20 AM66 °FFog.5 mph94%30.07 "Hg3 mi
8:50 AM66 °FFog.6 mph94%30.07 "Hg2 mi
8:20 AM66 °FFog.6 mph94%30.07 "Hg2 mi
7:50 AM66 °FFog.5 mph100%30.07 "Hg2 mi
7:20 AM66 °FFog.5 mph100%30.04 "Hg2 mi
6:50 AM66 °FFog.1 mph100%30.04 "Hg2 mi
6:20 AM66 °FFog.1 mph94%30.04 "Hg2 mi
5:50 AM66 °FFog.2 mph94%30.04 "Hg2 mi
5:20 AM66 °FFog.3 mph94%30.04 "Hg3 mi
4:50 AM66 °FFog.3 mph100%30.04 "Hg3 mi
11:50 PM
Fri, Jul 22
72 °FClear.3 mph78%30.04 "Hg10 mi
11:20 PM72 °FSunny.3 mph83%30.04 "Hg10 mi
Weather by CustomWeather, © 2016

See weather overviewHow to use our weather pages